IRIDIUM 150

Last updated on Tue Sep 22 2026 00:03:21 GMT+0000 (Coordinated Universal Time)

1 43257U 18030J 26263.94031526 .00000013 00000+0 -24306-5 0 9996 2 43257 86.3918 250.4109 0002233 87.0578 273.0874 14.34217438443889
UTC large
Height (km)
Speed (km/s)
/
Latitude / Longitude
Inclination (degrees)
Orbital Period (minutes)
Azimuth
Elevation
Range (km)
Doppler Factor

Next 0 passes for location: London (51.5072 / 0.1276)

No passes found over London.
IRIDIUM 150